When you browse on this site, cookies collect data to enhance your experience and personalize the content and advertising you see.
Visit our Privacy Policy to learn more. By continuing to use the site, you agree to this use of cookies and data.
  • In Hungary
  • List of Countries
  • For 7 days
  • Water Temperature
  • Satellite Maps
  • Weather Map
  • News
  • Weather Widgets
  • user-avatar
    Login

    Hourly Weather Stepanovo

    Today, 25 May, Saturday

    Time Temperature Precipitation Wind Pressure Humidity
    00:00 +15°C° 0.1 mm 1 mps 744 mmHg 96%
    01:00 +15°C° 0.1 mm 1 mps 744 mmHg 96%
    02:00 +14°C° 0 mm 1 mps 744 mmHg 96%
    03:00 +14°C° 0.1 mm 1 mps 744 mmHg 96%
    04:00 +13°C° 0.1 mm 1 mps 743 mmHg 96%
    05:00 +13°C° 0.1 mm 1 mps 743 mmHg 97%
    06:00 +14°C° 0 mm 1 mps 743 mmHg 91%
    07:00 +15°C° 0 mm 1 mps 743 mmHg 86%
    08:00 +16°C° 0 mm 2 mps 743 mmHg 79%
    09:00 +18°C° 0 mm 2 mps 742 mmHg 69%
    10:00 +19°C° 0 mm 2 mps 742 mmHg 59%
    11:00 +20°C° 0 mm 3 mps 742 mmHg 49%
    12:00 +21°C° 0 mm 3 mps 742 mmHg 49%
    13:00 +21°C° 0 mm 4 mps 742 mmHg 49%
    14:00 +21°C° 0 mm 4 mps 741 mmHg 49%
    15:00 +20°C° 0.3 mm 4 mps 741 mmHg 56%
    16:00 +19°C° 0.3 mm 4 mps 741 mmHg 63%
    17:00 +18°C° 0.3 mm 3 mps 741 mmHg 70%
    18:00 +17°C° 0.1 mm 3 mps 741 mmHg 75%
    19:00 +15°C° 0.1 mm 2 mps 740 mmHg 80%
    20:00 +14°C° 0.1 mm 2 mps 740 mmHg 85%
    21:00 +13°C° 0 mm 2 mps 741 mmHg 87%
    22:00 +10°C° 0 mm 2 mps 741 mmHg 88%
    23:00 +9°C° 0 mm 2 mps 741 mmHg 90%

    Tomorrow, 26 May, Sunday

    Time Temperature Precipitation Wind Pressure Humidity
    00:00 +8°C° 0 mm 2 mps 741 mmHg 92%
    01:00 +7°C° 0 mm 2 mps 742 mmHg 94%
    02:00 +6°C° 0 mm 2 mps 742 mmHg 96%
    03:00 +7°C° 0 mm 3 mps 742 mmHg 94%
    04:00 +7°C° 0 mm 3 mps 742 mmHg 92%
    05:00 +7°C° 0 mm 3 mps 742 mmHg 91%
    06:00 +8°C° 0 mm 3 mps 742 mmHg 85%
    07:00 +9°C° 0 mm 3 mps 742 mmHg 80%
    08:00 +10°C° 0 mm 3 mps 742 mmHg 75%
    09:00 +12°C° 0 mm 3 mps 742 mmHg 68%
    10:00 +14°C° 0 mm 3 mps 742 mmHg 61%
    11:00 +17°C° 0 mm 3 mps 741 mmHg 54%
    12:00 +18°C° 0.1 mm 4 mps 741 mmHg 55%
    13:00 +18°C° 0.1 mm 4 mps 741 mmHg 56%
    14:00 +19°C° 0.1 mm 5 mps 740 mmHg 57%
    15:00 +17°C° 0.3 mm 5 mps 740 mmHg 59%
    16:00 +17°C° 0.3 mm 5 mps 740 mmHg 61%
    17:00 +16°C° 0.3 mm 5 mps 740 mmHg 63%
    18:00 +14°C° 0 mm 5 mps 740 mmHg 68%
    19:00 +13°C° 0 mm 4 mps 740 mmHg 73%
    20:00 +11°C° 0 mm 4 mps 740 mmHg 78%
    21:00 +10°C° 0 mm 4 mps 740 mmHg 79%
    22:00 +10°C° 0 mm 4 mps 740 mmHg 80%
    23:00 +8°C° 0 mm 4 mps 740 mmHg 81%

    Day after tomorrow, 27 May, Monday

    Time Temperature Precipitation Wind Pressure Humidity
    00:00 +8°C° 0 mm 4 mps 740 mmHg 83%
    01:00 +8°C° 0 mm 4 mps 740 mmHg 84%
    02:00 +8°C° 0 mm 4 mps 740 mmHg 85%
    03:00 +8°C° 0.1 mm 4 mps 740 mmHg 86%
    04:00 +10°C° 0.1 mm 4 mps 740 mmHg 86%
    05:00 +10°C° 0.1 mm 4 mps 740 mmHg 87%
    06:00 +9°C° 0 mm 5 mps 740 mmHg 82%
    07:00 +10°C° 0 mm 5 mps 741 mmHg 78%
    08:00 +11°C° 0 mm 6 mps 741 mmHg 74%
    09:00 +13°C° 0 mm 5 mps 741 mmHg 67%
    10:00 +14°C° 0 mm 5 mps 741 mmHg 61%
    11:00 +16°C° 0 mm 5 mps 742 mmHg 55%
    12:00 +16°C° 0 mm 5 mps 742 mmHg 54%
    13:00 +18°C° 0 mm 4 mps 742 mmHg 54%
    14:00 +18°C° 0 mm 4 mps 742 mmHg 54%
    15:00 +17°C° 0.1 mm 4 mps 742 mmHg 61%
    16:00 +15°C° 0.1 mm 4 mps 742 mmHg 69%
    17:00 +16°C° 0.1 mm 3 mps 742 mmHg 76%
    18:00 +14°C° 0 mm 3 mps 742 mmHg 82%
    19:00 +14°C° 0 mm 2 mps 742 mmHg 88%
    20:00 +13°C° 0 mm 2 mps 742 mmHg 94%
    21:00 +13°C° 0 mm 2 mps 742 mmHg 95%
    22:00 +12°C° 0 mm 2 mps 742 mmHg 96%
    23:00 +12°C° 0 mm 2 mps 742 mmHg 97%

    28 May, Tuesday

    Time Temperature Precipitation Wind Pressure Humidity
    00:00 +13°C° 0 mm 2 mps 743 mmHg 97%
    01:00 +12°C° 0 mm 3 mps 743 mmHg 96%
    02:00 +12°C° 0 mm 3 mps 743 mmHg 95%
    03:00 +11°C° 0 mm 3 mps 743 mmHg 95%
    04:00 +11°C° 0 mm 3 mps 744 mmHg 95%
    05:00 +10°C° 0 mm 3 mps 744 mmHg 95%
    06:00 +11°C° 0 mm 3 mps 744 mmHg 89%
    07:00 +12°C° 0 mm 3 mps 745 mmHg 84%
    08:00 +13°C° 0 mm 3 mps 745 mmHg 78%
    09:00 +14°C° 0 mm 3 mps 746 mmHg 72%
    10:00 +17°C° 0 mm 2 mps 746 mmHg 66%
    11:00 +18°C° 0 mm 2 mps 746 mmHg 60%
    12:00 +19°C° 0 mm 2 mps 746 mmHg 55%
    13:00 +20°C° 0 mm 2 mps 746 mmHg 50%
    14:00 +21°C° 0 mm 2 mps 746 mmHg 45%
    15:00 +20°C° 0.3 mm 1 mps 745 mmHg 57%
    16:00 +19°C° 0.3 mm 1 mps 745 mmHg 69%
    17:00 +15°C° 0.3 mm 0 mps 745 mmHg 81%
    18:00 +15°C° 0.6 mm 1 mps 745 mmHg 85%
    19:00 +14°C° 0.6 mm 2 mps 744 mmHg 90%
    20:00 +13°C° 0.6 mm 2 mps 744 mmHg 94%
    21:00 +12°C° 0.9 mm 3 mps 744 mmHg 95%
    22:00 +12°C° 0.9 mm 3 mps 744 mmHg 96%
    23:00 +12°C° 0.9 mm 3 mps 743 mmHg 96%

    29 May, Wednesday

    Time Temperature Precipitation Wind Pressure Humidity
    00:00 +13°C° 0.1 mm 2 mps 743 mmHg 97%
    01:00 +14°C° 0.1 mm 2 mps 743 mmHg 98%
    02:00 +14°C° 0.1 mm 2 mps 743 mmHg 99%
    03:00 +14°C° 1.1 mm 2 mps 743 mmHg 99%
    04:00 +15°C° 1.1 mm 2 mps 743 mmHg 99%
    05:00 +16°C° 1.1 mm 2 mps 743 mmHg 99%
    06:00 +17°C° 0.3 mm 2 mps 743 mmHg 97%
    07:00 +18°C° 0.3 mm 3 mps 743 mmHg 95%
    08:00 +19°C° 0.3 mm 3 mps 743 mmHg 93%
    09:00 +20°C° 0.5 mm 3 mps 743 mmHg 90%
    10:00 +21°C° 0.5 mm 4 mps 743 mmHg 87%
    11:00 +22°C° 0.5 mm 4 mps 743 mmHg 85%
    12:00 +23°C° 1.7 mm 4 mps 742 mmHg 83%
    13:00 +23°C° 1.7 mm 4 mps 742 mmHg 82%
    14:00 +25°C° 1.7 mm 3 mps 742 mmHg 81%
    15:00 +24°C° 2.4 mm 3 mps 742 mmHg 84%
    16:00 +24°C° 2.4 mm 2 mps 742 mmHg 87%
    17:00 +23°C° 2.4 mm 2 mps 742 mmHg 89%
    18:00 +22°C° 2.2 mm 1 mps 742 mmHg 91%
    19:00 +20°C° 2.2 mm 1 mps 743 mmHg 92%
    20:00 +19°C° 2.2 mm 1 mps 743 mmHg 94%
    21:00 +17°C° 0.7 mm 2 mps 743 mmHg 95%
    22:00 +17°C° 0.7 mm 2 mps 743 mmHg 97%
    23:00 +16°C° 0.7 mm 2 mps 743 mmHg 98%

    30 May, Thursday

    Time Temperature Precipitation Wind Pressure Humidity
    00:00 +15°C° 0.4 mm 2 mps 744 mmHg 98%
    01:00 +13°C° 0.4 mm 3 mps 744 mmHg 97%
    02:00 +12°C° 0.4 mm 3 mps 744 mmHg 97%
    03:00 +12°C° 0.2 mm 3 mps 745 mmHg 97%
    04:00 +11°C° 0.2 mm 3 mps 746 mmHg 97%
    05:00 +11°C° 0.2 mm 3 mps 747 mmHg 97%
    06:00 +11°C° 0 mm 3 mps 747 mmHg 95%
    07:00 +11°C° 0 mm 3 mps 748 mmHg 94%
    08:00 +11°C° 0 mm 3 mps 749 mmHg 92%
    09:00 +13°C° 0 mm 3 mps 749 mmHg 79%
    10:00 +16°C° 0 mm 3 mps 750 mmHg 67%
    11:00 +17°C° 0 mm 3 mps 751 mmHg 54%
    12:00 +18°C° 0 mm 3 mps 751 mmHg 49%
    13:00 +18°C° 0 mm 3 mps 751 mmHg 45%
    14:00 +19°C° 0 mm 3 mps 751 mmHg 41%
    15:00 +19°C° 0 mm 3 mps 752 mmHg 41%
    16:00 +18°C° 0 mm 3 mps 752 mmHg 42%
    17:00 +18°C° 0 mm 3 mps 752 mmHg 43%
    18:00 +16°C° 0 mm 2 mps 752 mmHg 50%
    19:00 +14°C° 0 mm 2 mps 753 mmHg 57%
    20:00 +12°C° 0 mm 1 mps 753 mmHg 64%
    21:00 +11°C° 0 mm 1 mps 753 mmHg 61%
    22:00 +10°C° 0 mm 1 mps 753 mmHg 59%
    23:00 +9°C° 0 mm 1 mps 754 mmHg 57%
    Show more